This is the latest recevied weather packets stored in our database for station/object K8GLX. If no packets are shown the sender has not sent any weather packets the latest 10 day(s).
| Time | Temp. | Humidity | Pressure | Rain* | Wind** | Luminosity | Snow |
|---|---|---|---|---|---|---|---|
| 1777375028 | 14.44° C | 87% | 1009.2 hPa | 0 mm | - | 23 W/m² | - |
| 1777374734 | 14.44° C | 86% | 1009.3 hPa | 0 mm | - | 14 W/m² | - |
| 1777374427 | 14.44° C | 86% | 1009.4 hPa | 0 mm | - | 5 W/m² | - |
| 1777374133 | 14.44° C | 86% | 1009.1 hPa | 0 mm | - | 8 W/m² | - |
| 1777373828 | 15° C | 86% | 1009.1 hPa | 0 mm | - | 5 W/m² | - |
| 1777373534 | 15° C | 86% | 1008.8 hPa | 0 mm | - | 4 W/m² | - |
| 1777373228 | 15° C | 86% | 1008.8 hPa | 0 mm | - | 4 W/m² | - |
| 1777372934 | 15° C | 86% | 1008.7 hPa | 0 mm | - | 2 W/m² | - |
| 1777372628 | 15° C | 86% | 1008.5 hPa | 0 mm | - | 0 W/m² | - |
| 1777372334 | 15° C | 85% | 1008 hPa | 0 mm | - | 0 W/m² | - |
| 1777372028 | 15° C | 85% | 1007.8 hPa | 0 mm | - | 0 W/m² | - |
| 1777371734 | 15° C | 85% | 1007.9 hPa | 0 mm | - | 0 W/m² | - |
| 1777371428 | 14.44° C | 85% | 1007.6 hPa | 0 mm | - | 0 W/m² | - |
| 1777371259 | 15° C | 85% | 1007.2 hPa | 0 mm | - | 0 W/m² | - |
| 1777370828 | 15° C | 85% | 1007 hPa | 0 mm | - | 0 W/m² | - |
| 1777370534 | 15° C | 85% | 1006.8 hPa | 0 mm | - | 0 W/m² | - |
| 1777370227 | 15° C | 86% | 1006.8 hPa | 0 mm | - | 0 W/m² | - |
| 1777369934 | 15° C | 86% | 1006.9 hPa | 0 mm | - | 0 W/m² | - |
| 1777369628 | 15° C | 86% | 1006.8 hPa | 0 mm | - | 0 W/m² | - |
| 1777369334 | 15° C | 86% | 1006.7 hPa | 0.25 mm | - | 0 W/m² | - |
| 1777369028 | 15° C | 86% | 1006.5 hPa | 0.25 mm | - | 0 W/m² | - |
| 1777368734 | 15° C | 86% | 1006.5 hPa | 0.25 mm | - | 0 W/m² | - |
| 1777368428 | 15° C | 86% | 1006.8 hPa | 0.25 mm | - | 0 W/m² | - |
| 1777368261 | 15° C | 87% | 1006.3 hPa | 0.25 mm | - | 0 W/m² | - |
| 1777367828 | 15° C | 86% | 1006.4 hPa | 0.25 mm | - | 0 W/m² | - |
* Rain latest hour (hover to see other rain measurements)
** Current wind speed in m/s (hover to see current wind gust speed)